| time (UTC) | temp C | wind direction | speed KPH | gust KPH | rain 1hr cm | rain 24hr cm | rain mn cm | humidity % | barometer mb |
| 20260903074544 | 10 | 103 | 0.0 | 0.0 | 0.00 | 0.00 | 0.00 | 37 | 1014.2 |
| 20260903073046 | 10 | 103 | 0.0 | 0.0 | 0.00 | 0.00 | 0.00 | 43 | 1014.2 |
| 20260903071538 | 10 | 103 | 0.0 | 0.0 | 0.00 | 0.00 | 0.00 | 41 | 1014.2 |
| 20260903070035 | 10 | 103 | 0.0 | 0.0 | 0.00 | 0.00 | 0.00 | 41 | 1014.1 |
| 20260903064535 | 10 | 103 | 0.0 | 0.0 | 0.00 | 0.00 | 0.00 | 36 | 1014.1 |
| 20260903063034 | 10 | 103 | 0.0 | 0.0 | 0.00 | 0.00 | 0.00 | 42 | 1014.1 |
| 20260903061535 | 10 | 103 | 0.0 | 0.0 | 0.00 | 0.00 | 0.00 | 49 | 1014.1 |
| 20260903060032 | 10 | 55 | 0.0 | 0.0 | 0.00 | 0.00 | 0.00 | 47 | 1013.9 |
| 20260903054533 | 10 | 345 | 0.0 | 0.0 | 0.00 | 0.00 | 0.00 | 45 | 1013.9 |
| 20260903053032 | 11 | 345 | 0.0 | 0.0 | 0.00 | 0.00 | 0.00 | 51 | 1014.0 |
| 20260903051531 | 11 | 345 | 0.0 | 0.0 | 0.00 | 0.00 | 0.00 | 56 | 1014.1 |
| 20260903050030 | 12 | 345 | 0.0 | 0.0 | 0.00 | 0.00 | 0.00 | 61 | 1014.0 |
| 20260903044530 | 12 | 345 | 0.0 | 0.0 | 0.00 | 0.00 | 0.00 | 62 | 1014.1 |
| 20260903043029 | 12 | 345 | 0.0 | 0.0 | 0.00 | 0.00 | 0.00 | 61 | 1014.1 |
| 20260903041529 | 13 | 345 | 0.0 | 0.0 | 0.00 | 0.00 | 0.00 | 60 | 1014.0 |
| 20260903040029 | 13 | 345 | 0.0 | 0.0 | 0.00 | 0.00 | 0.00 | 55 | 1013.8 |
| 20260903034526 | 15 | 345 | 0.0 | 0.0 | 0.00 | 0.00 | 0.00 | 54 | 1013.6 |
| 20260903033026 | 16 | 345 | 0.0 | 0.0 | 0.00 | 0.00 | 0.00 | 54 | 1013.6 |
| 20260903031525 | 17 | 345 | 0.0 | 0.0 | 0.00 | 0.00 | 0.00 | 53 | 1013.4 |
| 20260903030029 | 17 | 345 | 0.0 | 0.0 | 0.00 | 0.00 | 0.00 | 48 | 1013.3 |
| 20260903024525 | 18 | 345 | 0.0 | 0.0 | 0.00 | 0.00 | 0.00 | 48 | 1013.3 |
| 20260903023024 | 19 | 345 | 0.0 | 0.0 | 0.00 | 0.00 | 0.00 | 47 | 1013.2 |
| 20260903021523 | 20 | 308 | 0.0 | 0.0 | 0.00 | 0.00 | 0.00 | 42 | 1013.1 |
| 20260903020035 | 21 | 309 | 0.0 | 0.0 | 0.00 | 0.00 | 0.00 | 39 | 1013.2 |
| 20260903014524 | 21 | 306 | 0.0 | 0.0 | 0.00 | 0.00 | 0.00 | 35 | 1013.2 |
| 20260903013020 | 21 | 300 | 0.0 | 0.0 | 0.00 | 0.00 | 0.00 | 35 | 1013.3 |
| 20260903011520 | 22 | 272 | 0.0 | 0.0 | 0.00 | 0.00 | 0.00 | 34 | 1013.3 |
| 20260903010018 | 22 | 322 | 0.0 | 9.7 | 0.00 | 0.00 | 0.00 | 33 | 1013.4 |
| 20260903004517 | 23 | 294 | 0.0 | 14.5 | 0.00 | 0.00 | 0.00 | 33 | 1013.4 |
| 20260903003016 | 23 | 339 | 0.0 | 16.1 | 0.00 | 0.00 | 0.00 | 32 | 1013.4 |
| 20260903001514 | 24 | 304 | 4.8 | 17.7 | 0.00 | 0.00 | 0.00 | 29 | 1013.4 |
| 20260903000013 | 25 | 327 | 1.6 | 16.1 | 0.00 | 0.00 | 0.00 | 27 | 1013.4 |
| 20260902234512 | 25 | 208 | 0.0 | 22.5 | 0.00 | 0.00 | 0.00 | 22 | 1013.4 |
| 20260902233012 | 25 | 305 | 0.0 | 19.3 | 0.00 | 0.00 | 0.00 | 22 | 1013.6 |
| 20260902231508 | 25 | 212 | 1.6 | 19.3 | 0.00 | 0.00 | 0.00 | 21 | 1013.6 |
| 20260902230007 | 26 | 319 | 6.4 | 24.1 | 0.00 | 0.00 | 0.00 | 23 | 1013.7 |
| 20260902224506 | 26 | 264 | 0.0 | 25.7 | 0.00 | 0.00 | 0.00 | 23 | 1013.7 |
| 20260902223003 | 26 | 317 | 1.6 | 20.9 | 0.00 | 0.00 | 0.00 | 20 | 1013.9 |
| 20260902221502 | 27 | 294 | 3.2 | 17.7 | 0.00 | 0.00 | 0.00 | 21 | 1014.2 |
| 20260902214558 | 27 | 324 | 1.6 | 22.5 | 0.00 | 0.00 | 0.00 | 18 | 1014.3 |
| 20260902213056 | 28 | 319 | 6.4 | 24.1 | 0.00 | 0.00 | 0.00 | 15 | 1014.3 |
| 20260902211556 | 29 | 307 | 3.2 | 20.9 | 0.00 | 0.00 | 0.00 | 15 | 1014.3 |
| 20260902210052 | 29 | 319 | 0.0 | 22.5 | 0.00 | 0.00 | 0.00 | 16 | 1014.5 |
| 20260902204630 | 29 | 293 | 0.0 | 8.0 | 0.00 | 0.00 | 0.00 | 17 | 1014.7 |
| 20260902203050 | 29 | 288 | 0.0 | 19.3 | 0.00 | 0.00 | 0.00 | 17 | 1015.0 |
| 20260902201545 | 29 | 295 | 0.0 | 22.5 | 0.00 | 0.00 | 0.00 | 17 | 1015.1 |
| 20260902200044 | 29 | 311 | 1.6 | 22.5 | 0.00 | 0.00 | 0.00 | 16 | 1015.2 |
| 20260902194543 | 28 | 262 | 0.0 | 1.6 | 0.00 | 0.00 | 0.00 | 16 | 1015.2 |
| 20260902193041 | 28 | 302 | 0.0 | 19.3 | 0.00 | 0.00 | 0.00 | 17 | 1015.2 |
| 20260902191541 | 28 | 281 | 1.6 | 17.7 | 0.00 | 0.00 | 0.00 | 16 | 1015.5 |
| 20260902190037 | 28 | 287 | 0.0 | 27.4 | 0.00 | 0.00 | 0.00 | 15 | 1015.6 |
| 20260902184536 | 27 | 317 | 0.0 | 19.3 | 0.00 | 0.00 | 0.00 | 14 | 1015.7 |
| 20260902183051 | 27 | 291 | 0.0 | 19.3 | 0.00 | 0.00 | 0.00 | 14 | 1015.7 |
| 20260902181530 | 27 | 265 | 0.0 | 17.7 | 0.00 | 0.00 | 0.00 | 13 | 1015.8 |
| 20260902180029 | 26 | 292 | 0.0 | 20.9 | 0.00 | 0.00 | 0.00 | 13 | 1015.7 |
| 20260902174528 | 26 | 254 | 0.0 | 17.7 | 0.00 | 0.00 | 0.00 | 14 | 1015.7 |
| 20260902173028 | 26 | 279 | 0.0 | 20.9 | 0.00 | 0.00 | 0.00 | 14 | 1015.6 |
| 20260902171521 | 26 | 312 | 1.6 | 12.9 | 0.00 | 0.00 | 0.00 | 15 | 1015.4 |
| 20260902170017 | 25 | 293 | 0.0 | 1.6 | 0.00 | 0.00 | 0.00 | 16 | 1015.2 |
| 20260902164521 | 25 | 236 | 0.0 | 16.1 | 0.00 | 0.00 | 0.00 | 15 | 1015.2 |
| 20260902163009 | 23 | 263 | 0.0 | 0.0 | 0.00 | 0.00 | 0.00 | 17 | 1015.1 |
| 20260902161505 | 22 | 159 | 0.0 | 0.0 | 0.00 | 0.00 | 0.00 | 18 | 1015.0 |
| 20260902160000 | 20 | 128 | 0.0 | 11.3 | 0.00 | 0.00 | 0.00 | 23 | 1015.0 |
| 20260902154557 | 17 | 122 | 0.0 | 1.6 | 0.00 | 0.00 | 0.00 | 26 | 1015.0 |
| 20260902153104 | 15 | 122 | 0.0 | 4.8 | 0.00 | 0.00 | 0.00 | 31 | 1014.8 |
| 20260902151548 | 13 | 122 | 0.0 | 6.4 | 0.00 | 0.00 | 0.00 | 34 | 1014.9 |
| 20260902150044 | 12 | 123 | 0.0 | 0.0 | 0.00 | 0.00 | 0.00 | 38 | 1014.9 |
| 20260902144540 | 11 | 122 | 0.0 | 0.0 | 0.00 | 0.00 | 0.00 | 40 | 1014.9 |
| 20260902143038 | 11 | 122 | 0.0 | 0.0 | 0.00 | 0.00 | 0.00 | 41 | 1014.9 |
| 20260902141537 | 10 | 122 | 0.0 | 0.0 | 0.00 | 0.00 | 0.00 | 41 | 1014.9 |
| 20260902140036 | 10 | 122 | 0.0 | 0.0 | 0.00 | 0.00 | 0.00 | 43 | 1014.7 |
| 20260902134535 | 10 | 122 | 0.0 | 0.0 | 0.00 | 0.00 | 0.00 | 41 | 1014.3 |
| 20260902133034 | 9 | 122 | 0.0 | 0.0 | 0.00 | 0.00 | 0.00 | 40 | 1014.3 |
| 20260902131532 | 9 | 294 | 0.0 | 3.2 | 0.00 | 0.00 | 0.00 | 40 | 1014.2 |
| 20260902130031 | 9 | 296 | 0.0 | 0.0 | 0.00 | 0.00 | 0.00 | 40 | 1014.2 |
| 20260902124529 | 10 | 296 | 0.0 | 0.0 | 0.00 | 0.00 | 0.00 | 39 | 1014.3 |
| 20260902123030 | 10 | 296 | 0.0 | 0.0 | 0.00 | 0.00 | 0.00 | 39 | 1014.2 |
| 20260902121527 | 10 | 296 | 0.0 | 0.0 | 0.00 | 0.00 | 0.00 | 38 | 1014.2 |
| 20260902120026 | 10 | 296 | 0.0 | 0.0 | 0.00 | 0.00 | 0.00 | 38 | 1014.1 |
| 20260902114526 | 10 | 296 | 0.0 | 0.0 | 0.00 | 0.00 | 0.00 | 38 | 1014.1 |
| 20260902113025 | 10 | 296 | 0.0 | 0.0 | 0.00 | 0.00 | 0.00 | 38 | 1014.2 |
| 20260902111522 | 10 | 296 | 0.0 | 0.0 | 0.00 | 0.00 | 0.00 | 38 | 1014.2 |
| 20260902110035 | 10 | 296 | 0.0 | 0.0 | 0.00 | 0.00 | 0.00 | 38 | 1014.2 |
| 20260902104532 | 10 | 296 | 0.0 | 0.0 | 0.00 | 0.00 | 0.00 | 38 | 1014.2 |
| 20260902103036 | 10 | 296 | 0.0 | 0.0 | 0.00 | 0.00 | 0.00 | 38 | 1014.3 |
| 20260902101517 | 10 | 296 | 0.0 | 0.0 | 0.00 | 0.00 | 0.00 | 38 | 1014.5 |
| 20260902100016 | 10 | 296 | 0.0 | 0.0 | 0.00 | 0.00 | 0.00 | 38 | 1014.5 |
| 20260902094514 | 10 | 296 | 0.0 | 0.0 | 0.00 | 0.00 | 0.00 | 39 | 1014.5 |
| 20260902093012 | 10 | 296 | 0.0 | 0.0 | 0.00 | 0.00 | 0.00 | 39 | 1014.5 |
| 20260902091511 | 11 | 296 | 0.0 | 0.0 | 0.00 | 0.00 | 0.00 | 40 | 1014.5 |
| 20260902090018 | 11 | 296 | 0.0 | 0.0 | 0.00 | 0.00 | 0.00 | 40 | 1014.5 |
| 20260902084508 | 11 | 296 | 0.0 | 0.0 | 0.00 | 0.00 | 0.00 | 41 | 1014.5 |
| 20260902083005 | 11 | 296 | 0.0 | 0.0 | 0.00 | 0.00 | 0.00 | 44 | 1014.6 |
| 20260902081504 | 11 | 296 | 0.0 | 0.0 | 0.00 | 0.00 | 0.00 | 45 | 1014.6 |
| 20260902080004 | 11 | 296 | 0.0 | 0.0 | 0.00 | 0.00 | 0.00 | 47 | 1014.6 |